Time,TemperatureF,DewpointF,PressureIn,WindDirection,WindDirectionDegrees,WindSpeedMPH,WindSpeedGustMPH,Humidity,HourlyPrecipIn,Conditions,Clouds,dailyrainin,SoftwareType,DateUTC
2013-05-21 00:03:00,79.0,74.0,29.99,ESE,102,4.0,10.0,85,0.00,,,0.00,,2013-05-21 04:03:00,
2013-05-21 00:13:00,79.0,74.0,29.99,ESE,102,4.0,10.0,85,0.00,,,0.00,,2013-05-21 04:13:00,
2013-05-21 00:23:00,79.0,74.0,29.98,SE,131,7.0,13.0,86,0.00,,,0.00,,2013-05-21 04:23:00,
2013-05-21 00:33:00,79.0,75.0,29.99,ESE,106,6.0,10.0,87,0.00,,,0.00,,2013-05-21 04:33:00,
2013-05-21 00:42:00,79.0,75.0,29.99,ESE,106,6.0,10.0,87,0.00,,,0.00,,2013-05-21 04:42:00,
2013-05-21 00:53:00,79.0,75.0,29.98,East,99,4.0,10.0,87,0.00,,,0.00,,2013-05-21 04:53:00,
2013-05-21 01:02:00,79.0,75.0,29.98,ESE,112,5.0,11.0,87,0.00,,,0.00,,2013-05-21 05:02:00,
2013-05-21 01:12:00,79.0,75.0,29.97,SE,140,7.0,11.0,87,0.00,,,0.00,,2013-05-21 05:12:00,
2013-05-21 01:22:00,79.0,75.0,29.97,SE,140,7.0,11.0,87,0.00,,,0.00,,2013-05-21 05:22:00,
2013-05-21 01:32:00,79.0,75.0,29.97,ESE,108,7.0,12.0,87,0.00,,,0.00,,2013-05-21 05:32:00,
2013-05-21 01:42:00,79.0,75.0,29.96,SE,127,8.0,15.0,87,0.00,,,0.00,,2013-05-21 05:42:00,
2013-05-21 01:52:00,79.0,75.0,29.96,SE,127,8.0,15.0,87,0.00,,,0.00,,2013-05-21 05:52:00,
2013-05-21 02:02:00,79.0,75.0,29.95,East,93,8.0,16.0,87,0.00,,,0.00,,2013-05-21 06:02:00,
2013-05-21 02:12:00,79.0,75.0,29.95,East,93,8.0,16.0,87,0.00,,,0.00,,2013-05-21 06:12:00,
2013-05-21 02:21:00,79.0,75.0,29.94,East,100,7.0,14.0,87,0.00,,,0.00,,2013-05-21 06:21:00,
2013-05-21 02:32:00,79.0,75.0,29.94,East,94,8.0,15.0,87,0.00,,,0.00,,2013-05-21 06:32:00,
2013-05-21 02:42:00,79.0,75.0,29.94,East,94,8.0,15.0,87,0.00,,,0.00,,2013-05-21 06:42:00,
2013-05-21 02:52:00,79.0,75.0,29.93,ENE,76,7.0,14.0,87,0.00,,,0.00,,2013-05-21 06:52:00,
2013-05-21 03:01:00,79.0,75.0,29.92,ENE,74,8.0,15.0,87,0.00,,,0.00,,2013-05-21 07:01:00,
2013-05-21 03:11:00,79.0,75.0,29.92,ENE,74,8.0,15.0,87,0.00,,,0.00,,2013-05-21 07:11:00,
2013-05-21 03:22:00,79.0,75.0,29.92,East,90,8.0,14.0,87,0.00,,,0.00,,2013-05-21 07:22:00,
2013-05-21 03:31:00,79.0,75.0,29.91,ESE,106,9.0,15.0,87,0.00,,,0.00,,2013-05-21 07:31:00,
2013-05-21 03:41:00,79.0,75.0,29.91,ESE,106,9.0,15.0,87,0.00,,,0.00,,2013-05-21 07:41:00,
2013-05-21 03:52:00,79.0,75.0,29.91,ESE,112,10.0,15.0,87,0.00,,,0.00,,2013-05-21 07:52:00,
2013-05-21 04:02:00,79.0,74.0,29.91,East,83,7.0,16.0,86,0.00,,,0.00,,2013-05-21 08:02:00,
2013-05-21 04:11:00,79.0,74.0,29.92,SSE,149,9.0,17.0,85,0.00,,,0.00,,2013-05-21 08:11:00,
2013-05-21 04:21:00,79.0,74.0,29.92,SSE,149,9.0,17.0,85,0.00,,,0.00,,2013-05-21 08:21:00,
2013-05-21 04:31:00,78.0,73.0,29.91,East,84,6.0,14.0,84,0.00,,,0.00,,2013-05-21 08:31:00,
2013-05-21 04:41:00,79.0,74.0,29.91,ESE,109,7.0,11.0,85,0.00,,,0.00,,2013-05-21 08:41:00,
2013-05-21 04:52:00,79.0,74.0,29.91,ESE,109,7.0,11.0,85,0.00,,,0.00,,2013-05-21 08:52:00,
2013-05-21 05:01:00,79.0,74.0,29.91,East,98,7.0,13.0,86,0.00,,,0.00,,2013-05-21 09:01:00,
2013-05-21 05:11:00,79.0,74.0,29.91,East,98,7.0,13.0,86,0.00,,,0.00,,2013-05-21 09:11:00,
2013-05-21 05:21:00,78.0,73.0,29.91,SE,131,6.0,13.0,85,0.00,,,0.00,,2013-05-21 09:21:00,
2013-05-21 05:33:00,79.0,74.0,29.91,SE,130,6.0,10.0,86,0.00,,,0.00,,2013-05-21 09:33:00,
2013-05-21 05:42:00,79.0,74.0,29.91,SE,130,6.0,10.0,86,0.00,,,0.00,,2013-05-21 09:42:00,
2013-05-21 05:53:00,78.0,73.0,29.91,East,98,6.0,13.0,86,0.00,,,0.00,,2013-05-21 09:53:00,
2013-05-21 06:02:00,79.0,74.0,29.91,ESE,103,8.0,15.0,86,0.00,,,0.00,,2013-05-21 10:02:00,
2013-05-21 06:12:00,79.0,74.0,29.91,ESE,103,8.0,15.0,86,0.00,,,0.00,,2013-05-21 10:12:00,
2013-05-21 06:22:00,79.0,74.0,29.91,ESE,113,8.0,15.0,85,0.00,,,0.00,,2013-05-21 10:22:00,
2013-05-21 06:32:00,79.0,74.0,29.91,ESE,118,6.0,13.0,85,0.00,,,0.00,,2013-05-21 10:32:00,
2013-05-21 06:42:00,79.0,74.0,29.91,ESE,118,6.0,13.0,85,0.00,,,0.00,,2013-05-21 10:42:00,
2013-05-21 06:52:00,79.0,74.0,29.92,SE,141,7.0,12.0,85,0.00,,,0.00,,2013-05-21 10:52:00,
2013-05-21 07:02:00,79.0,74.0,29.92,ESE,115,6.0,11.0,86,0.00,,,0.00,,2013-05-21 11:02:00,
2013-05-21 07:12:00,79.0,74.0,29.92,ESE,115,6.0,11.0,86,0.00,,,0.00,,2013-05-21 11:12:00,
2013-05-21 07:21:00,79.0,74.0,29.92,SE,137,8.0,12.0,86,0.00,,,0.00,,2013-05-21 11:21:00,
2013-05-21 07:32:00,79.0,74.0,29.93,SE,134,7.0,13.0,86,0.00,,,0.00,,2013-05-21 11:32:00,
2013-05-21 07:42:00,79.0,74.0,29.93,SE,134,7.0,13.0,86,0.00,,,0.00,,2013-05-21 11:42:00,
2013-05-21 07:52:00,79.0,74.0,29.93,ESE,119,6.0,13.0,86,0.00,,,0.00,,2013-05-21 11:52:00,
2013-05-21 08:01:00,80.0,75.0,29.94,ESE,102,8.0,12.0,86,0.00,,,0.00,,2013-05-21 12:01:00,
2013-05-21 08:11:00,80.0,75.0,29.94,ESE,102,8.0,12.0,86,0.00,,,0.00,,2013-05-21 12:11:00,
2013-05-21 08:21:00,81.0,76.0,29.95,ESE,105,6.0,11.0,85,0.00,,,0.00,,2013-05-21 12:21:00,
2013-05-21 08:32:00,81.0,76.0,29.95,ESE,113,6.0,12.0,84,0.00,,,0.00,,2013-05-21 12:32:00,
2013-05-21 08:42:00,81.0,76.0,29.95,ESE,113,6.0,12.0,84,0.00,,,0.00,,2013-05-21 12:42:00,
2013-05-21 08:52:00,82.0,76.0,29.96,ESE,113,4.0,11.0,81,0.00,,,0.00,,2013-05-21 12:52:00,
2013-05-21 09:01:00,83.0,76.0,29.96,East,84,7.0,11.0,80,0.00,,,0.00,,2013-05-21 13:01:00,
2013-05-21 09:12:00,83.0,76.0,29.96,East,84,7.0,11.0,80,0.00,,,0.00,,2013-05-21 13:12:00,
2013-05-21 09:22:00,84.0,77.0,29.96,ENE,73,5.0,9.0,79,0.00,,,0.00,,2013-05-21 13:22:00,
2013-05-21 09:32:00,84.0,76.0,29.96,SE,128,5.0,10.0,77,0.00,,,0.00,,2013-05-21 13:32:00,
2013-05-21 09:42:00,85.0,76.0,29.96,East,84,5.0,10.0,75,0.00,,,0.00,,2013-05-21 13:42:00,
2013-05-21 09:52:00,85.0,76.0,29.96,East,84,5.0,10.0,75,0.00,,,0.00,,2013-05-21 13:52:00,
2013-05-21 10:01:00,85.0,76.0,29.96,ESE,113,5.0,10.0,74,0.00,,,0.00,,2013-05-21 14:01:00,
2013-05-21 10:11:00,85.0,76.0,29.96,ESE,113,5.0,10.0,74,0.00,,,0.00,,2013-05-21 14:11:00,
2013-05-21 10:21:00,86.0,77.0,29.96,SE,127,5.0,9.0,74,0.00,,,0.00,,2013-05-21 14:21:00,
2013-05-21 10:32:00,87.0,77.0,29.97,ESE,111,5.0,9.0,73,0.00,,,0.00,,2013-05-21 14:32:00,
2013-05-21 10:42:00,87.0,77.0,29.97,ESE,111,5.0,9.0,73,0.00,,,0.00,,2013-05-21 14:42:00,
2013-05-21 10:52:00,87.0,76.0,29.97,ESE,116,5.0,11.0,71,0.00,,,0.00,,2013-05-21 14:52:00,
2013-05-21 11:01:00,87.0,77.0,29.97,East,98,5.0,12.0,72,0.00,,,0.00,,2013-05-21 15:01:00,
2013-05-21 11:11:00,88.0,77.0,29.97,East,99,7.0,11.0,71,0.00,,,0.00,,2013-05-21 15:11:00,
2013-05-21 11:21:00,88.0,77.0,29.97,East,99,7.0,11.0,71,0.00,,,0.00,,2013-05-21 15:21:00,
2013-05-21 11:33:00,88.0,77.0,29.97,East,87,6.0,11.0,71,0.00,,,0.00,,2013-05-21 15:33:00,
2013-05-21 11:42:00,88.0,78.0,29.97,East,82,6.0,13.0,72,0.00,,,0.00,,2013-05-21 15:42:00,
2013-05-21 11:53:00,88.0,78.0,29.97,East,82,6.0,13.0,72,0.00,,,0.00,,2013-05-21 15:53:00,
2013-05-21 12:03:00,88.0,78.0,29.97,SE,131,6.0,11.0,72,0.00,,,0.00,,2013-05-21 16:03:00,
2013-05-21 12:13:00,89.0,78.0,29.97,SE,137,6.0,13.0,71,0.00,,,0.00,,2013-05-21 16:13:00,
2013-05-21 12:23:00,89.0,78.0,29.97,SE,137,6.0,13.0,71,0.00,,,0.00,,2013-05-21 16:23:00,
2013-05-21 12:32:00,89.0,78.0,29.97,ESE,122,7.0,12.0,71,0.00,,,0.00,,2013-05-21 16:32:00,
2013-05-21 12:42:00,89.0,78.0,29.96,ESE,113,7.0,13.0,71,0.00,,,0.00,,2013-05-21 16:42:00,
2013-05-21 12:53:00,89.0,78.0,29.96,ESE,113,7.0,13.0,71,0.00,,,0.00,,2013-05-21 16:53:00,
2013-05-21 13:02:00,89.0,77.0,29.96,SSE,153,8.0,13.0,69,0.00,,,0.00,,2013-05-21 17:02:00,
2013-05-21 13:12:00,89.0,78.0,29.96,ESE,104,7.0,10.0,70,0.00,,,0.00,,2013-05-21 17:12:00,
2013-05-21 13:23:00,89.0,78.0,29.96,ESE,104,7.0,10.0,70,0.00,,,0.00,,2013-05-21 17:23:00,
2013-05-21 13:32:00,89.0,78.0,29.96,SE,129,8.0,12.0,70,0.00,,,0.00,,2013-05-21 17:32:00,
2013-05-21 13:43:00,89.0,78.0,29.95,East,96,7.0,10.0,71,0.00,,,0.00,,2013-05-21 17:43:00,
2013-05-21 13:52:00,89.0,78.0,29.95,East,96,7.0,10.0,71,0.00,,,0.00,,2013-05-21 17:52:00,
2013-05-21 14:02:00,89.0,78.0,29.95,East,96,7.0,10.0,71,0.00,,,0.00,,2013-05-21 18:02:00,
2013-05-21 14:12:00,89.0,78.0,29.94,SE,144,8.0,12.0,71,0.00,,,0.00,,2013-05-21 18:12:00,
2013-05-21 14:22:00,89.0,78.0,29.94,SE,144,8.0,12.0,71,0.00,,,0.00,,2013-05-21 18:22:00,
2013-05-21 14:32:00,90.0,78.0,29.94,SE,129,9.0,14.0,69,0.00,,,0.00,,2013-05-21 18:32:00,
2013-05-21 14:42:00,89.0,78.0,29.93,SE,133,7.0,14.0,70,0.00,,,0.00,,2013-05-21 18:42:00,
2013-05-21 14:52:00,89.0,78.0,29.93,SE,133,7.0,14.0,70,0.00,,,0.00,,2013-05-21 18:52:00,
2013-05-21 15:01:00,89.0,77.0,29.92,ESE,117,7.0,11.0,69,0.00,,,0.00,,2013-05-21 19:01:00,
2013-05-21 15:11:00,88.0,78.0,29.91,ESE,102,6.0,11.0,72,0.00,,,0.00,,2013-05-21 19:11:00,
2013-05-21 15:21:00,88.0,78.0,29.91,ESE,102,6.0,11.0,72,0.00,,,0.00,,2013-05-21 19:21:00,
2013-05-21 15:32:00,88.0,78.0,29.91,South,176,7.0,12.0,72,0.00,,,0.00,,2013-05-21 19:32:00,
2013-05-21 15:42:00,88.0,78.0,29.90,East,86,8.0,13.0,72,0.00,,,0.00,,2013-05-21 19:42:00,
2013-05-21 15:52:00,88.0,78.0,29.90,East,86,8.0,13.0,72,0.00,,,0.00,,2013-05-21 19:52:00,
2013-05-21 16:03:00,88.0,78.0,29.90,East,86,8.0,13.0,72,0.00,,,0.00,,2013-05-21 20:03:00,
2013-05-21 16:11:00,88.0,78.0,29.90,East,86,8.0,13.0,72,0.00,,,0.00,,2013-05-21 20:11:00,
2013-05-21 16:22:00,88.0,76.0,29.89,ESE,123,7.0,10.0,68,0.00,,,0.00,,2013-05-21 20:22:00,
2013-05-21 16:32:00,89.0,77.0,29.88,SE,144,6.0,10.0,68,0.00,,,0.00,,2013-05-21 20:32:00,
2013-05-21 16:42:00,89.0,77.0,29.88,ESE,118,7.0,10.0,68,0.00,,,0.00,,2013-05-21 20:42:00,
2013-05-21 16:52:00,89.0,77.0,29.88,ESE,118,7.0,10.0,68,0.00,,,0.00,,2013-05-21 20:52:00,
2013-05-21 17:02:00,88.0,77.0,29.88,SE,141,5.0,9.0,69,0.00,,,0.00,,2013-05-21 21:02:00,
2013-05-21 17:11:00,88.0,77.0,29.88,SE,141,5.0,9.0,69,0.00,,,0.00,,2013-05-21 21:11:00,
2013-05-21 17:21:00,88.0,77.0,29.88,SE,138,4.0,10.0,70,0.00,,,0.00,,2013-05-21 21:21:00,
2013-05-21 17:33:00,88.0,77.0,29.88,East,100,6.0,8.0,69,0.00,,,0.00,,2013-05-21 21:33:00,
2013-05-21 17:43:00,87.0,76.0,29.88,SE,135,4.0,8.0,70,0.00,,,0.00,,2013-05-21 21:43:00,
2013-05-21 17:54:00,87.0,76.0,29.88,SE,135,4.0,8.0,70,0.00,,,0.00,,2013-05-21 21:54:00,
2013-05-21 18:02:00,87.0,76.0,29.88,SSE,158,4.0,8.0,70,0.00,,,0.00,,2013-05-21 22:02:00,
2013-05-21 18:12:00,87.0,76.0,29.88,SSE,158,4.0,8.0,70,0.00,,,0.00,,2013-05-21 22:12:00,
2013-05-21 18:23:00,87.0,76.0,29.88,SE,142,5.0,10.0,71,0.00,,,0.00,,2013-05-21 22:23:00,
2013-05-21 18:33:00,86.0,76.0,29.89,ESE,113,3.0,8.0,72,0.00,,,0.00,,2013-05-21 22:33:00,
2013-05-21 18:42:00,85.0,75.0,29.90,SE,143,4.0,9.0,71,0.00,,,0.00,,2013-05-21 22:42:00,
2013-05-21 18:53:00,85.0,75.0,29.90,SE,143,4.0,9.0,71,0.00,,,0.00,,2013-05-21 22:53:00,
2013-05-21 19:02:00,85.0,75.0,29.90,ESE,118,5.0,9.0,72,0.00,,,0.00,,2013-05-21 23:02:00,
2013-05-21 19:12:00,85.0,75.0,29.90,ESE,118,5.0,9.0,72,0.00,,,0.00,,2013-05-21 23:12:00,
2013-05-21 19:22:00,84.0,75.0,29.91,SE,125,7.0,11.0,75,0.00,,,0.00,,2013-05-21 23:22:00,
2013-05-21 19:32:00,84.0,76.0,29.91,ESE,116,7.0,11.0,78,0.00,,,0.00,,2013-05-21 23:32:00,
2013-05-21 19:42:00,83.0,76.0,29.91,SE,144,8.0,12.0,79,0.00,,,0.00,,2013-05-21 23:42:00,
2013-05-21 19:52:00,83.0,76.0,29.91,SE,144,8.0,12.0,79,0.00,,,0.00,,2013-05-21 23:52:00,
2013-05-21 20:01:00,82.0,76.0,29.91,ESE,109,6.0,12.0,81,0.00,,,0.00,,2013-05-22 00:01:00,
2013-05-21 20:11:00,81.0,75.0,29.91,ESE,109,6.0,12.0,82,0.00,,,0.00,,2013-05-22 00:11:00,
2013-05-21 20:21:00,81.0,75.0,29.91,ESE,109,6.0,12.0,82,0.00,,,0.00,,2013-05-22 00:21:00,
2013-05-21 20:32:00,81.0,75.0,29.91,ESE,114,7.0,13.0,83,0.00,,,0.00,,2013-05-22 00:32:00,
2013-05-21 20:41:00,81.0,75.0,29.91,East,97,5.0,12.0,83,0.00,,,0.00,,2013-05-22 00:41:00,
2013-05-21 20:52:00,81.0,75.0,29.91,East,97,5.0,12.0,83,0.00,,,0.00,,2013-05-22 00:52:00,
2013-05-21 21:01:00,81.0,76.0,29.91,ESE,107,6.0,11.0,84,0.00,,,0.00,,2013-05-22 01:01:00,
2013-05-21 21:11:00,81.0,76.0,29.91,ESE,107,6.0,11.0,84,0.00,,,0.00,,2013-05-22 01:11:00,
2013-05-21 21:21:00,80.0,75.0,29.91,ESE,114,5.0,11.0,85,0.00,,,0.00,,2013-05-22 01:21:00,
2013-05-21 21:32:00,80.0,75.0,29.91,ESE,110,6.0,10.0,85,0.00,,,0.00,,2013-05-22 01:32:00,
2013-05-21 21:42:00,80.0,75.0,29.91,ESE,119,7.0,11.0,85,0.00,,,0.00,,2013-05-22 01:42:00,
2013-05-21 21:52:00,80.0,75.0,29.91,ESE,119,7.0,11.0,85,0.00,,,0.00,,2013-05-22 01:52:00,
2013-05-21 22:01:00,80.0,75.0,29.92,SE,125,8.0,12.0,85,0.00,,,0.00,,2013-05-22 02:01:00,
2013-05-21 22:11:00,80.0,75.0,29.93,SSE,149,8.0,16.0,85,0.00,,,0.00,,2013-05-22 02:11:00,
2013-05-21 22:21:00,80.0,75.0,29.93,SSE,149,8.0,16.0,85,0.00,,,0.00,,2013-05-22 02:21:00,
2013-05-21 22:32:00,80.0,75.0,29.93,ESE,113,7.0,13.0,85,0.00,,,0.00,,2013-05-22 02:32:00,
2013-05-21 22:42:00,80.0,75.0,29.93,SE,127,6.0,11.0,85,0.00,,,0.00,,2013-05-22 02:42:00,
2013-05-21 22:52:00,80.0,75.0,29.93,SE,127,6.0,11.0,85,0.00,,,0.00,,2013-05-22 02:52:00,
2013-05-21 23:01:00,80.0,75.0,29.93,SE,130,6.0,11.0,85,0.00,,,0.00,,2013-05-22 03:01:00,
2013-05-21 23:11:00,80.0,75.0,29.93,ESE,111,6.0,10.0,85,0.00,,,0.00,,2013-05-22 03:11:00,
2013-05-21 23:21:00,80.0,75.0,29.93,ESE,111,6.0,10.0,85,0.00,,,0.00,,2013-05-22 03:21:00,
2013-05-21 23:33:00,80.0,75.0,29.92,SE,136,4.0,9.0,85,0.00,,,0.00,,2013-05-22 03:33:00,
2013-05-21 23:43:00,80.0,75.0,29.92,ESE,115,7.0,12.0,86,0.00,,,0.00,,2013-05-22 03:43:00,
2013-05-21 23:53:00,80.0,75.0,29.92,ESE,115,7.0,12.0,86,0.00,,,0.00,,2013-05-22 03:53:00,